Location: Palo Alto
(37.4420°N, 122.1420°W)
Time: 22:23:43
(UTC-07:00)

ARGOS - Visible Passes

Search period start: 30 March 2015 00:00
Search period end: 09 April 2015 00:00
Orbit: 820 x 835 km, 98.7° (Epoch: 30 March)

Date Brightness Start Highest point End Pass type
(mag) Time Alt. Az. Time Alt. Az. Time Alt. Az.
30 Mar 5.2 21:07:03 11° NE 21:07:03 11° NE 21:07:46 10° NE visible
30 Mar 4.9 22:48:34 28° NNW 22:48:34 28° NNW 22:50:59 10° NNW visible
31 Mar 4.6 22:29:45 30° N 22:29:45 30° N 22:32:27 10° N visible
01 Apr 4.5 22:10:56 28° NNE 22:10:56 28° NNE 22:13:47 10° N visible
01 Apr 5.9 23:52:27 13° NW 23:52:27 13° NW 23:53:14 10° NW visible
02 Apr 4.6 21:52:08 24° NE 21:52:08 24° NE 21:54:58 10° N visible
02 Apr 5.5 23:33:39 19° NW 23:33:39 19° NW 23:35:20 10° NNW visible
03 Apr 4.8 21:33:19 19° NE 21:33:19 19° NE 21:35:55 10° NNE visible
03 Apr 5.1 23:14:50 25° NW 23:14:50 25° NW 23:17:10 10° NNW visible
04 Apr 5.1 21:14:30 13° NE 21:14:30 13° NE 21:16:27 10° NNE visible
04 Apr 4.7 22:56:01 32° NNW 22:56:01 32° NNW 22:58:50 10° NNW visible
05 Apr 4.3 22:37:13 36° N 22:37:13 36° N 22:40:22 10° N visible
06 Apr 4.2 22:18:24 35° NNE 22:18:24 35° NNE 22:21:45 10° N visible
06 Apr 5.8 23:59:55 13° WNW 23:59:55 13° WNW 00:00:44 10° NW visible
07 Apr 4.3 21:59:36 29° NE 21:59:36 29° NE 22:03:00 10° N visible
07 Apr 5.5 23:41:07 19° NW 23:41:07 19° NW 23:43:00 10° NW visible
08 Apr 4.6 21:40:47 22° NE 21:40:47 22° NE 21:44:04 10° NNE visible
08 Apr 5.0 23:22:18 26° NW 23:22:18 26° NW 23:24:56 10° NNW visible
